Meteo Giornale » Osservazioni meteo Svizzera » Lugano

ore: 10:20 - Osservazioni Meteo Lugano
Lat. 46° 0' N Lon. 8° 58' E Alt. 273 metri s.l.m.

sereno Europe/Zurich

22 °C

Sereno

Temp. 24 Ore

17 °C

28 °C

Nord

1.8 Km/h

Dew point 18 °C

Umidità 78 %

Visibilità  9 Km

Il sole sorge alle ore 07:11

Il sole tramonta alle ore 19:21

Data e Ora Cielo e Fenomeni T °C DP °C Um. % Pres. hPa Vis. km Vento km/h
Oggi h: 10:20 sereno Sereno 22 18 78 1019 9 N 1.8
Oggi h: 09:50 sereno Sereno 21 18 82 1019 9 N 1.8
Oggi h: 09:20 sereno Sereno 19 17 88 1019 9 N 1.8
Oggi h: 08:50 sereno Sereno 18 17 93 1019 9 N 1.8
Oggi h: 08:20 sereno Sereno 17 16 93 1019 9 N 1.8
Oggi h: 07:50 sereno Sereno 17 17 100 1019 9 N 5.5
Oggi h: 07:20 sereno Sereno 17 16 93 1019 8 N 1.8
Oggi h: 06:50 sereno Sereno 17 16 93 1019 8 N 1.8
Oggi h: 06:20 sereno Sereno 18 17 93 1019 9 N 3.7
Oggi h: 05:50 poco_nuvoloso Poco Nuvoloso 18 16 88 1019 10 N 5.5
Oggi h: 05:20 nuvoloso Nuvoloso 18 17 93 1019 10 N/NE 9.3
Oggi h: 04:50 molto_nuvoloso Molto Nuvoloso 18 17 93 1019 10 N 3.7
Oggi h: 04:20 poco_nuvoloso Poco Nuvoloso 17 16 93 1019 10 N 3.7
Oggi h: 03:50 sereno Sereno 18 17 93 1019 10 N 3.7
Oggi h: 03:20 molto_nuvoloso Molto Nuvoloso 18 17 93 1019 10 N 3.7
Oggi h: 02:50 nuvoloso Nuvoloso 18 17 93 1019 8 N 1.8
Oggi h: 02:20 sereno Sereno 18 17 93 1019 10 N 1.8
Oggi h: 01:50 poco_nuvoloso Poco Nuvoloso 19 17 88 1019 10 N 1.8
Oggi h: 01:20 sereno Sereno 19 17 88 1019 10 N 3.7
Oggi h: 00:50 molto_nuvoloso Molto Nuvoloso 20 17 82 1019 10 N 5.5
Oggi h: 00:20 molto_nuvoloso Molto Nuvoloso 19 17 88 1019 10 N 5.5
Ieri h: 23:50 sereno Sereno 20 17 82 1019 10 N 1.8
Ieri h: 23:20 sereno Sereno 20 17 82 1019 10 N 1.8
Ieri h: 22:50 sereno Sereno 20 17 82 1019 10 N 1.8
Ieri h: 22:20 sereno Sereno 21 17 77 1018 10 N 3.7
Ieri h: 21:50 molto_nuvoloso Molto Nuvoloso 21 17 77 1018 10 N 7.4
Ieri h: 21:20 nuvoloso Nuvoloso 21 17 77 1018 10 N 5.5
Ieri h: 20:50 sereno Sereno 21 18 82 1018 10 N 5.5
Ieri h: 20:20 nuvoloso Nuvoloso 21 18 82 1018 10 N 5.5
Ieri h: 19:50 molto_nuvoloso Molto Nuvoloso 23 19 78 1017 10 N 3.7
Ieri h: 19:20 sereno Sereno 24 19 73 1017 10 N 3.7
Ieri h: 18:50 sereno Sereno 25 19 69 1016 10 N 3.7
Ieri h: 18:20 sereno Sereno 26 19 65 1016 10 N 3.7
Ieri h: 17:50 sereno Sereno 26 17 57 1016 10 N 5.5
Ieri h: 17:20 sereno Sereno 27 17 54 1016 10 N 5.5
Ieri h: 16:50 molto_nuvoloso Molto Nuvoloso 26 17 57 1016 10 S 9.3
Ieri h: 16:20 molto_nuvoloso Molto Nuvoloso 27 16 50 1016 10 S 7.4
Ieri h: 15:50 molto_nuvoloso Molto Nuvoloso 28 15 45 1016 10 S/SO 9.3
Ieri h: 15:20 sereno Sereno 28 17 51 1016 10 S 9.3
Ieri h: 14:50 sereno Sereno 28 16 48 1016 10 S/SO 9.3
Ieri h: 14:20 sereno Sereno 27 15 47 1016 10 S 7.4
Ieri h: 13:50 sereno Sereno 27 16 50 1016 10 S 7.4
Ieri h: 13:20 sereno Sereno 26 16 54 1017 10 S 11.1
Ieri h: 12:50 sereno Sereno 25 16 57 1017 10 S 7.4
Ieri h: 12:20 sereno Sereno 25 15 53 1017 10 S 7.4
Ieri h: 11:50 sereno Sereno 24 17 64 1017 10 S 7.4
Ieri h: 11:20 sereno Sereno 23 18 73 1017 10 N 5.5
Ieri h: 10:50 sereno Sereno 22 17 73 1017 10 N 3.7